When you browse on this site, cookies collect data to enhance your experience and personalize the content and advertising you see.
Visit our Privacy Policy to learn more. By continuing to use the site, you agree to this use of cookies and data.
  • En España
  • Lista de países
  • Para 7 días
  • Temperatura del agua
  • El tiempo en el mapa
  • Informadores
  • user-avatar
    Iniciar sesión

    Tiempo cada hora Annaba

    Hoy, 1 Junio, Lunes

    Tiempo Temperatura Precipitaciones Viento Presión Humedad
    00:00 +19°C° 0 mm 3 mps 758 mmHg 75%
    01:00 +18°C° 0 mm 3 mps 758 mmHg 75%
    02:00 +18°C° 0.1 mm 2 mps 758 mmHg 75%
    03:00 +18°C° 0.1 mm 2 mps 758 mmHg 75%
    04:00 +18°C° 0.1 mm 2 mps 758 mmHg 74%
    05:00 +19°C° 0.1 mm 2 mps 758 mmHg 72%
    06:00 +20°C° 0.1 mm 2 mps 758 mmHg 69%
    07:00 +21°C° 0 mm 2 mps 758 mmHg 68%
    08:00 +24°C° 0.1 mm 3 mps 758 mmHg 64%
    09:00 +25°C° 0.1 mm 3 mps 759 mmHg 60%
    10:00 +27°C° 0.1 mm 4 mps 759 mmHg 56%
    11:00 +27°C° 0.1 mm 4 mps 759 mmHg 54%
    12:00 +28°C° 0.1 mm 4 mps 758 mmHg 52%
    13:00 +29°C° 0.1 mm 5 mps 758 mmHg 50%
    14:00 +29°C° 0 mm 5 mps 758 mmHg 51%
    15:00 +28°C° 0 mm 6 mps 758 mmHg 52%
    16:00 +27°C° 0 mm 6 mps 758 mmHg 52%
    17:00 +26°C° 0 mm 6 mps 758 mmHg 55%
    18:00 +25°C° 0 mm 5 mps 758 mmHg 58%
    19:00 +23°C° 0 mm 5 mps 758 mmHg 61%
    20:00 +22°C° 0 mm 4 mps 759 mmHg 66%
    21:00 +21°C° 0 mm 3 mps 760 mmHg 70%
    22:00 +20°C° 0 mm 2 mps 760 mmHg 75%
    23:00 +19°C° 0 mm 2 mps 760 mmHg 77%

    Mañana, 2 Junio, Martes

    Tiempo Temperatura Precipitaciones Viento Presión Humedad
    00:00 +19°C° 0 mm 2 mps 760 mmHg 78%
    01:00 +18°C° 0 mm 2 mps 760 mmHg 80%
    02:00 +18°C° 0 mm 2 mps 759 mmHg 81%
    03:00 +18°C° 0 mm 2 mps 759 mmHg 82%
    04:00 +18°C° 0 mm 2 mps 759 mmHg 83%
    05:00 +19°C° 0 mm 2 mps 759 mmHg 78%
    06:00 +21°C° 0 mm 1 mps 759 mmHg 73%
    07:00 +22°C° 0 mm 1 mps 759 mmHg 67%
    08:00 +24°C° 0 mm 1 mps 760 mmHg 62%
    09:00 +26°C° 0 mm 1 mps 760 mmHg 56%
    10:00 +27°C° 0 mm 2 mps 760 mmHg 51%
    11:00 +28°C° 0 mm 2 mps 760 mmHg 49%
    12:00 +29°C° 0 mm 3 mps 759 mmHg 47%
    13:00 +29°C° 0 mm 4 mps 759 mmHg 44%
    14:00 +29°C° 0 mm 4 mps 759 mmHg 44%
    15:00 +29°C° 0 mm 4 mps 758 mmHg 44%
    16:00 +28°C° 0 mm 4 mps 758 mmHg 44%
    17:00 +27°C° 0 mm 4 mps 758 mmHg 49%
    18:00 +26°C° 0 mm 3 mps 758 mmHg 54%
    19:00 +24°C° 0 mm 3 mps 758 mmHg 59%
    20:00 +23°C° 0 mm 2 mps 758 mmHg 63%
    21:00 +21°C° 0 mm 2 mps 758 mmHg 68%
    22:00 +21°C° 0 mm 1 mps 759 mmHg 72%
    23:00 +21°C° 0 mm 1 mps 758 mmHg 72%

    Pasado mañana, 3 Junio, Miércoles

    Tiempo Temperatura Precipitaciones Viento Presión Humedad
    00:00 +20°C° 0 mm 1 mps 758 mmHg 71%
    01:00 +20°C° 0 mm 1 mps 758 mmHg 70%
    02:00 +20°C° 0 mm 1 mps 757 mmHg 70%
    03:00 +20°C° 0 mm 1 mps 757 mmHg 69%
    04:00 +20°C° 0 mm 1 mps 757 mmHg 69%
    05:00 +21°C° 0 mm 1 mps 756 mmHg 65%
    06:00 +22°C° 0 mm 1 mps 756 mmHg 61%
    07:00 +23°C° 0 mm 1 mps 756 mmHg 57%
    08:00 +25°C° 0 mm 1 mps 756 mmHg 51%
    09:00 +27°C° 0 mm 1 mps 756 mmHg 45%
    10:00 +29°C° 0 mm 2 mps 757 mmHg 39%
    11:00 +30°C° 0 mm 2 mps 756 mmHg 38%
    12:00 +30°C° 0 mm 3 mps 756 mmHg 36%
    13:00 +32°C° 0 mm 4 mps 756 mmHg 35%
    14:00 +32°C° 0 mm 4 mps 755 mmHg 35%
    15:00 +30°C° 0 mm 4 mps 755 mmHg 36%
    16:00 +30°C° 0 mm 4 mps 755 mmHg 36%
    17:00 +29°C° 0 mm 4 mps 754 mmHg 39%
    18:00 +28°C° 0 mm 4 mps 754 mmHg 43%
    19:00 +27°C° 0 mm 3 mps 754 mmHg 47%
    20:00 +25°C° 0 mm 3 mps 754 mmHg 49%
    21:00 +24°C° 0 mm 2 mps 755 mmHg 52%
    22:00 +23°C° 0 mm 2 mps 755 mmHg 54%
    23:00 +23°C° 0 mm 1 mps 754 mmHg 54%

    4 Junio, Jueves

    Tiempo Temperatura Precipitaciones Viento Presión Humedad
    00:00 +23°C° 0 mm 1 mps 754 mmHg 54%
    01:00 +23°C° 0 mm 1 mps 753 mmHg 54%
    02:00 +23°C° 0 mm 1 mps 753 mmHg 53%
    03:00 +23°C° 0 mm 1 mps 753 mmHg 53%
    04:00 +23°C° 0 mm 1 mps 752 mmHg 52%
    05:00 +24°C° 0 mm 1 mps 752 mmHg 51%
    06:00 +25°C° 0 mm 1 mps 752 mmHg 49%
    07:00 +26°C° 0 mm 1 mps 752 mmHg 48%
    08:00 +28°C° 0 mm 1 mps 752 mmHg 44%
    09:00 +31°C° 0 mm 1 mps 752 mmHg 39%
    10:00 +33°C° 0 mm 1 mps 753 mmHg 35%
    11:00 +34°C° 0 mm 1 mps 752 mmHg 32%
    12:00 +36°C° 0 mm 2 mps 752 mmHg 30%
    13:00 +36°C° 0 mm 3 mps 752 mmHg 28%
    14:00 +35°C° 0.1 mm 3 mps 752 mmHg 29%
    15:00 +34°C° 0.1 mm 4 mps 752 mmHg 30%
    16:00 +33°C° 0.1 mm 4 mps 751 mmHg 31%
    17:00 +30°C° 0.1 mm 4 mps 752 mmHg 37%
    18:00 +28°C° 0.1 mm 4 mps 752 mmHg 44%
    19:00 +27°C° 0.1 mm 4 mps 752 mmHg 50%
    20:00 +25°C° 0.2 mm 3 mps 753 mmHg 55%
    21:00 +24°C° 0.2 mm 3 mps 754 mmHg 60%
    22:00 +21°C° 0.2 mm 3 mps 755 mmHg 65%
    23:00 +21°C° 0.2 mm 3 mps 755 mmHg 69%

    5 Junio, Viernes

    Tiempo Temperatura Precipitaciones Viento Presión Humedad
    00:00 +20°C° 0.2 mm 3 mps 754 mmHg 73%
    01:00 +20°C° 0.2 mm 4 mps 754 mmHg 76%
    02:00 +20°C° 0 mm 4 mps 754 mmHg 79%
    03:00 +19°C° 0 mm 4 mps 754 mmHg 81%
    04:00 +19°C° 0 mm 4 mps 754 mmHg 84%
    05:00 +20°C° 0 mm 4 mps 754 mmHg 82%
    06:00 +21°C° 0 mm 4 mps 755 mmHg 81%
    07:00 +21°C° 0 mm 4 mps 755 mmHg 80%
    08:00 +23°C° 0 mm 5 mps 755 mmHg 70%
    09:00 +26°C° 0 mm 5 mps 755 mmHg 60%
    10:00 +27°C° 0 mm 5 mps 756 mmHg 51%
    11:00 +28°C° 0 mm 6 mps 756 mmHg 49%
    12:00 +28°C° 0 mm 6 mps 756 mmHg 48%
    13:00 +29°C° 0 mm 7 mps 756 mmHg 47%
    14:00 +28°C° 0 mm 7 mps 756 mmHg 49%
    15:00 +28°C° 0 mm 7 mps 756 mmHg 50%
    16:00 +28°C° 0 mm 8 mps 756 mmHg 51%
    17:00 +26°C° 0 mm 7 mps 757 mmHg 53%
    18:00 +24°C° 0 mm 7 mps 757 mmHg 55%
    19:00 +23°C° 0 mm 6 mps 757 mmHg 57%
    20:00 +22°C° 0 mm 5 mps 758 mmHg 61%
    21:00 +20°C° 0 mm 4 mps 759 mmHg 65%
    22:00 +19°C° 0 mm 3 mps 759 mmHg 69%
    23:00 +19°C° 0 mm 3 mps 759 mmHg 70%

    6 Junio, Sábado

    Tiempo Temperatura Precipitaciones Viento Presión Humedad
    00:00 +19°C° 0 mm 3 mps 759 mmHg 70%
    01:00 +18°C° 0 mm 2 mps 759 mmHg 71%
    02:00 +18°C° 0 mm 2 mps 759 mmHg 70%
    03:00 +18°C° 0 mm 2 mps 759 mmHg 70%
    04:00 +19°C° 0 mm 1 mps 759 mmHg 70%
    05:00 +20°C° 0 mm 1 mps 759 mmHg 65%
    06:00 +22°C° 0 mm 1 mps 759 mmHg 60%
    07:00 +23°C° 0 mm 1 mps 760 mmHg 54%
    08:00 +25°C° 0 mm 1 mps 760 mmHg 48%
    09:00 +27°C° 0 mm 1 mps 760 mmHg 42%
    10:00 +30°C° 0 mm 1 mps 760 mmHg 35%
    11:00 +30°C° 0 mm 1 mps 759 mmHg 34%
    12:00 +31°C° 0 mm 2 mps 759 mmHg 33%
    13:00 +33°C° 0 mm 3 mps 759 mmHg 32%
    14:00 +31°C° 0 mm 3 mps 759 mmHg 34%
    15:00 +32°C° 0 mm 4 mps 758 mmHg 35%
    16:00 +30°C° 0 mm 5 mps 758 mmHg 37%
    17:00 +29°C° 0 mm 4 mps 758 mmHg 41%
    18:00 +28°C° 0 mm 4 mps 758 mmHg 46%
    19:00 +26°C° 0 mm 3 mps 758 mmHg 50%
    20:00 +25°C° 0 mm 3 mps 758 mmHg 52%
    21:00 +24°C° 0 mm 3 mps 758 mmHg 55%
    22:00 +22°C° 0 mm 3 mps 758 mmHg 57%
    23:00 +22°C° 0 mm 3 mps 758 mmHg 56%
    Mostrar más